sat.trackr.live / text

‹ back to catalog

PIESAT-2 12

NORAD 62336 · 2024-241D

PAYLOAD ACTIVE UNKNOWN

§ Identity

Operator
Country
PRC
Launch date
2024-12-16
Launch site
TAISC
Launch vehicle
Mass (kg)
RCS (m²)

External: N2YO · Heavens-Above · Gunter

§ Orbital elements

Epoch: 2026-09-22T23:14:03.301728Z

Period
95.03 min
Inclination
97.5308°
Eccentricity
0.0001494
Mean motion
15.15365701 rev/d
Perigee alt
518.8 km
Apogee alt
520.9 km
Semi-major
6,898.0 km
B*
2.7046e-4
RAAN
212.4443°
Arg perigee
75.9265°
Mean anomaly
284.2133°
Rev number
9,760

§ Raw data

PIESAT-2 121 62336U 24241D   26265.96809377  .00005036  00000+0  27046-3 0  99982 62336  97.5308 212.4443 0001494  75.9265 284.2133 15.15365701 97605

JSON: /api/v1/satellites/62336 · /tle

For live sub-satellite position, see the globe view (requires WebGL).

§ Visibility from observer

Set your observer location to see the next 7 days of passes ≥ 10°. The values pass through the URL so the page stays shareable.

No JS? Fill the form by hand. The geolocation button needs JavaScript.